Phoenix-Mesa Gateway Airport, AZ

7:23 AM MST on October 15, 2019 (GMT -0700)
Phoenix-Mesa Gateway Airport

Weather History for KIWA - September, 2019

Change the Weather History Date:

Monday, September 16, 2019

  Actual Average Record
Temperature  
Mean Temperature 86 °F -  
Max Temperature 96 °F 97 °F 105 °F (2010)
Min Temperature 75 °F 72 °F 62 °F (2016)
Cooling Degree Days 22    
Growing Degree Days 36 (Base 50)    
Moisture  
Dew Point 59 °F    
Average Humidity 46    
Maximum Humidity 65    
Minimum Humidity 30    
Precipitation  
Precipitation 0.00 in - - ()
Sea Level Pressure  
Sea Level Pressure 29.91 in    
Wind  
Wind Speed 7 mph ()    
Max Wind Speed 24 mph    
Max Gust Speed 30 mph    
Visibility 10.0 miles    
Events      
Averages and records for this station are not official NWS values.
T = Trace of Precipitation, MM = Missing Value Source: Averaged Metar Reports

Daily Weather History Graph

Daily Weather History Graph

Search for Another Location

Airport or City:

Astronomy

Sep. 16, 2019 Rise Set
Actual Time 6:10 AM MST 6:31 PM MST
Civil Twilight 5:45 AM MST 6:56 PM MST
Nautical Twilight 5:16 AM MST 7:25 PM MST
Astronomical Twilight 4:47 AM MST 7:55 PM MST
Moon 8:14 PM MST (9/16) 8:16 AM MST (9/16)
Length of Visible Light 13h 10m
Length of Day
12h 21m
Waning Gibbous, 94% of the Moon is Illuminated
Sep 16
Waning Gibbous
Sep 21
Last Quarter
Sep 28
New
Oct 5
First Quarter
Oct 13
Full

Hourly Weather History & Observations

Time (MST) Temp. Heat Index Dew Point Humidity Pressure Visibility Wind Dir Wind Speed Gust Speed Precip Events Conditions
12:15 AM 82.0 °F 81.4 °F 54.7 °F 39% 29.90 in 10.0 mi SE 9.2 mph - N/A   Clear
12:35 AM 81.7 °F 81.2 °F 54.9 °F 40% 29.90 in 10.0 mi SE 8.1 mph - N/A   Clear
12:55 AM 79.2 °F - 55.8 °F 44% 29.90 in 10.0 mi SE 6.9 mph - N/A   Clear
1:15 AM 79.5 °F - 56.5 °F 45% 29.90 in 10.0 mi SE 6.9 mph - N/A   Clear
1:35 AM 79.7 °F - 56.3 °F 44% 29.90 in 10.0 mi SE 6.9 mph - N/A   Clear
1:55 AM 79.2 °F - 56.8 °F 46% 29.90 in 10.0 mi SSE 8.1 mph - N/A   Clear
2:15 AM 79.2 °F - 57.0 °F 46% 29.89 in 10.0 mi SE 6.9 mph - N/A   Clear
2:35 AM 78.3 °F - 57.0 °F 48% 29.89 in 10.0 mi SE 6.9 mph - N/A   Clear
2:55 AM 77.5 °F - 57.2 °F 49% 29.89 in 10.0 mi SSE 8.1 mph - N/A   Clear
3:15 AM 77.9 °F - 57.6 °F 49% 29.89 in 10.0 mi SSE 6.9 mph - N/A   Clear
3:35 AM 77.4 °F - 58.1 °F 51% 29.90 in 10.0 mi South 6.9 mph - N/A   Clear
3:55 AM 77.9 °F - 59.0 °F 52% 29.90 in 10.0 mi SSE 6.9 mph - N/A   Clear
4:15 AM 78.4 °F - 59.4 °F 52% 29.90 in 10.0 mi SE 5.8 mph - N/A   Clear
4:35 AM 77.7 °F - 59.0 °F 52% 29.91 in 10.0 mi SE 5.8 mph - N/A   Clear
4:55 AM 77.0 °F - 59.0 °F 54% 29.91 in 10.0 mi ESE 5.8 mph - N/A   Partly Cloudy
5:50 AM 77.0 °F - 59.0 °F 54% 29.93 in 10.0 mi Calm Calm - N/A   Partly Cloudy
6:50 AM 77.0 °F - 60.8 °F 57% 29.94 in 10.0 mi SSE 4.6 mph - N/A   Scattered Clouds
7:55 AM 84.2 °F 84.4 °F 60.8 °F 45% 29.94 in 10.0 mi ESE 11.5 mph - N/A   Mostly Cloudy
8:50 AM 87.8 °F 87.6 °F 60.8 °F 40% 29.96 in 10.0 mi SE 11.5 mph - N/A   Scattered Clouds
9:55 AM 89.6 °F 90.1 °F 62.6 °F 40% 29.96 in 10.0 mi SSE 9.2 mph - N/A   Mostly Cloudy
10:55 AM 91.4 °F 92.1 °F 62.6 °F 38% 29.94 in 10.0 mi SSE 10.4 mph 17.3 mph N/A   Mostly Cloudy
11:50 AM 93.2 °F 94.1 °F 62.6 °F 36% 29.92 in 10.0 mi Variable 5.8 mph - N/A   Mostly Cloudy
12:50 PM 96.8 °F 97.1 °F 60.8 °F 30% 29.90 in 10.0 mi SE 6.9 mph - N/A   Mostly Cloudy
1:55 PM 95.0 °F 94.4 °F 59.0 °F 30% 29.85 in 10.0 mi WNW 8.1 mph - N/A   Mostly Cloudy
3:50 PM 93.2 °F 92.6 °F 59.0 °F 32% 29.83 in 10.0 mi SW 5.8 mph - N/A   Mostly Cloudy
4:53 PM 91.4 °F 92.1 °F 62.6 °F 38% 29.83 in 10.0 mi South 9.2 mph - N/A   Mostly Cloudy
6:47 PM 84.2 °F 83.8 °F 59.0 °F 42% 29.88 in 10.0 mi SSE 24.2 mph 29.9 mph N/A   Mostly Cloudy
7:50 PM 80.6 °F 81.5 °F 60.8 °F 51% 29.90 in 10.0 mi SE 18.4 mph - N/A   Mostly Cloudy
8:55 PM 80.6 °F 81.1 °F 59.0 °F 48% 29.96 in 10.0 mi South 15.0 mph - N/A   Mostly Cloudy
9:55 PM 78.8 °F - 60.8 °F 54% 29.98 in 10.0 mi Variable 6.9 mph - N/A   Mostly Cloudy
10:55 PM 78.8 °F - 59.0 °F 51% 29.93 in 10.0 mi ESE 18.4 mph - N/A   Mostly Cloudy
11:47 PM 75.2 °F - 62.6 °F 65% 29.90 in 10.0 mi SE 9.2 mph - N/A   Mostly Cloudy